Location: Lesignano de� Bagni
(44.6500°N, 10.3000°E)
Time: 15:47:17
(UTC+00:00)

SL-4 R/B - Pass Details

Date: 03 March 2021
Orbit: 428 x 663 km, 51.6° (Epoch: 23 April)

Event Time Altitude Azimuth Distance (km) Brightness Sun altitude
Rises 18:11:21 0° 296° (WNW) 2,497 6.7 -11.8°
Reaches altitude 10° 18:13:45 10° 308° (NW) 1,589 5.3 -12.2°
Maximum altitude 18:16:53 28° 10° (N) 857 2.9 -12.8°
Enters shadow 18:18:41 18° 57° (ENE) 1,143 3.2 -13.1°
